Spokane Fairchild, WA
on Wednesday, November 21, 2012

Wednesday
Previous Day Next Day
Daily Summary
 ActualAverage (KGEG)Record (KGEG)
Temperature
Mean Temperature °F 34°F  
Max Temperature 43°F 39°F 56°F (2002)
Min Temperature 30°F 28°F -10°F (1900)
Degree Days
Heating Degree Days 28 31  
Month to date heating degree days 579  
Since 1 July heating degree days 1367  
Cooling Degree Days 0 0  
Month to date cooling degree days 0  
Year to date cooling degree days 450  
Moisture
Dew Point 38°F   
Average Humidity 98    
Maximum Humidity 100    
Minimum Humidity 81    
Precipitation
Precipitation 0.19 in 0.09 in 0.67 in (1992)
Month to date precipitation 1.56  
Year to date precipitation 13.52  
Snow
Snow 0.00 in 0.30 in 5.10 in (1896)
Month to date snowfall 4.0  
Since 1 July snowfall 4.1  
Since 1 September snowfall 4.1  
Snow Depth in   
Wind
Wind Speed 11 mph   
Max Wind Speed 30 mph   
Max Gust Speed 38 mph   
Visibility 9 miles   
Events Rain , Snow   

Key: T is trace of precipitation, MM is missing value
Source: NWS Daily Summary
Time(PST)TemperatureDew PointHumidity Pressure Visibility Wind DirectionWind SpeedGust SpeedPrecipitationEvents Conditions
12:58 AM 41.2°F 41.2°F 100% 29.71 in 10.0 miles SE 5.8 mph - N/A   Mostly Cloudy
1:02 AM 41.0°F 41.0°F 100% 29.67 in 10.0 miles SSE 5.8 mph - N/A Rain Light Rain
1:06 AM 41.0°F 41.0°F 100% 29.67 in 10.0 miles SSE 4.6 mph - N/A Rain Light Rain
1:19 AM 41.0°F 41.0°F 100% 29.67 in 10.0 miles Variable 1.2 mph - N/A   Overcast
1:21 AM 41.0°F 41.0°F 100% 29.67 in 10.0 miles Variable 2.3 mph - N/A Rain Light Rain
1:51 AM 41.0°F 41.0°F 100% 29.68 in 9.0 miles Variable 1.2 mph - N/A Rain Light Rain
1:58 AM 41.7°F 41.7°F 100% 29.71 in 9.0 miles NNW 2.3 mph - 0.00 in Rain Light Rain
2:02 AM 41.0°F 41.0°F 100% 29.67 in 10.0 miles North 1.2 mph - N/A   Overcast
2:04 AM 41.0°F 41.0°F 100% 29.67 in 10.0 miles North 2.3 mph - N/A Rain Light Rain
2:14 AM 41.0°F 41.0°F 100% 29.67 in 10.0 miles East 3.5 mph - N/A Rain Light Rain
2:24 AM 39.2°F 39.2°F 100% 29.65 in 10.0 miles ESE 5.8 mph - N/A Rain Light Rain
2:35 AM 39.2°F 39.2°F 100% 29.65 in 10.0 miles East 3.5 mph - N/A   Mostly Cloudy
2:58 AM 39.6°F 39.6°F 100% 29.67 in 10.0 miles East 3.5 mph - 0.00 in   Overcast
3:12 AM 39.2°F 39.2°F 100% 29.64 in 10.0 miles SE 5.8 mph - N/A   Overcast
3:35 AM 39.2°F 39.2°F 100% 29.63 in 10.0 miles ESE 3.5 mph - N/A   Overcast
3:58 AM 39.9°F 39.9°F 100% 29.67 in 10.0 miles SE 4.6 mph - 0.00 in   Overcast
4:03 AM 39.2°F 39.2°F 100% 29.63 in 10.0 miles SSE 4.6 mph - N/A Rain Light Rain
4:19 AM 39.2°F 39.2°F 100% 29.62 in 10.0 miles ESE 4.6 mph - N/A   Overcast
4:58 AM 40.1°F 40.1°F 100% 29.65 in 10.0 miles East 4.6 mph - 0.00 in   Overcast
5:21 AM 41.0°F 41.0°F 100% 29.61 in 10.0 miles East 1.2 mph - N/A Rain Light Rain
5:43 AM 39.2°F 39.2°F 100% 29.61 in 9.0 miles ENE 2.3 mph - N/A Rain Light Rain
5:58 AM 39.9°F 39.9°F 100% 29.65 in 5.0 miles NNW 3.5 mph - 0.03 in Rain Rain
6:13 AM 39.2°F 39.2°F 100% 29.61 in 10.0 miles NE 5.8 mph - N/A Rain Light Rain
6:52 AM 41.0°F 41.0°F 100% 29.62 in 10.0 miles East 8.1 mph - N/A Rain Light Rain
6:57 AM 41.0°F 41.0°F 100% 29.62 in 8.0 miles East 5.8 mph - N/A Rain Light Rain
6:58 AM 40.5°F 40.5°F 100% 29.65 in 8.0 miles East 5.8 mph - 0.03 in Rain Light Rain
7:08 AM 41.0°F 41.0°F 100% 29.62 in 5.0 miles ESE 4.6 mph - N/A Rain Rain
7:13 AM 41.0°F 41.0°F 100% 29.63 in 9.0 miles ESE 4.6 mph - N/A Rain Light Rain
7:18 AM 41.0°F 41.0°F 100% 29.66 in 10.0 miles South 8.1 mph - N/A Rain Light Rain
7:28 AM 39.2°F 39.2°F 100% 29.66 in 2.5 miles West 16.1 mph - N/A Rain Rain
7:29 AM 37.4°F 37.4°F 100% 29.66 in 2.0 miles WNW 15.0 mph - N/A Rain Rain
7:34 AM 37.4°F 37.4°F 100% 29.66 in 1.8 miles West 10.4 mph - N/A Rain Heavy Rain
7:39 AM 37.4°F 37.4°F 100% 29.66 in 3.0 miles West 8.1 mph - N/A Rain Light Rain
7:44 AM 35.6°F 35.6°F 100% 29.66 in 6.0 miles West 5.8 mph - N/A Rain Light Rain
7:54 AM 37.4°F 37.4°F 100% 29.66 in 10.0 miles SW 5.8 mph - N/A   Overcast
7:58 AM 37.4°F 37.4°F 100% 29.70 in 10.0 miles WSW 6.9 mph - 0.10 in   Overcast
8:12 AM 39.2°F 39.2°F 100% 29.66 in 10.0 miles SW 6.9 mph - N/A Rain Light Rain
8:17 AM 41.0°F 41.0°F 100% 29.66 in 10.0 miles SSW 12.7 mph 17.3 mph N/A Rain Light Rain
8:37 AM 41.0°F 41.0°F 100% 29.67 in 10.0 miles SW 19.6 mph 24.2 mph N/A   Overcast
8:51 AM 39.2°F 39.2°F 100% 29.69 in 10.0 miles SSW 20.7 mph 29.9 mph N/A   Light Drizzle
8:58 AM 39.7°F 39.7°F 100% 29.73 in 10.0 miles SSW 20.7 mph 25.3 mph 0.01 in   Light Drizzle
9:01 AM 39.2°F 39.2°F 100% 29.69 in 10.0 miles SSW 17.3 mph 25.3 mph N/A   Overcast
9:39 AM 39.2°F 39.2°F 100% 29.72 in 10.0 miles SSW 23.0 mph 27.6 mph N/A   Light Drizzle
9:48 AM 39.2°F 39.2°F 100% 29.73 in 10.0 miles SSW 20.7 mph 36.8 mph N/A   Overcast
9:58 AM 39.4°F 39.4°F 100% 29.77 in 10.0 miles SSW 25.3 mph 32.2 mph 0.00 in   Overcast
10:23 AM 41.0°F 41.0°F 100% 29.76 in 10.0 miles SW 29.9 mph 38.0 mph N/A   Overcast
10:38 AM 41.0°F 41.0°F 100% 29.76 in 10.0 miles SSW 24.2 mph 38.0 mph N/A   Mostly Cloudy
10:58 AM 40.5°F 40.5°F 100% 29.80 in 10.0 miles SSW 20.7 mph 34.5 mph N/A   Overcast
11:48 AM 41.0°F 41.0°F 100% 29.79 in 10.0 miles SSW 27.6 mph 33.4 mph N/A   Light Drizzle
11:58 AM 41.4°F 41.4°F 100% 29.82 in 10.0 miles SW 25.3 mph 33.4 mph 0.00 in   Light Drizzle
11:59 AM 42.8°F 42.8°F 100% 29.78 in 10.0 miles SW 24.2 mph 33.4 mph N/A   Mostly Cloudy
12:09 PM 42.8°F 42.8°F 100% 29.79 in 10.0 miles SW 23.0 mph 33.4 mph N/A   Scattered Clouds
12:16 PM 42.8°F 42.8°F 100% 29.80 in 10.0 miles SSW 26.5 mph 32.2 mph N/A   Partly Cloudy
12:33 PM 42.8°F 42.8°F 100% 29.80 in 10.0 miles SSW 25.3 mph 35.7 mph N/A   Partly Cloudy
12:58 PM 42.8°F 42.3°F 98% 29.86 in 10.0 miles SW 25.3 mph 35.7 mph 0.02 in   Partly Cloudy
12:59 PM 42.8°F 42.8°F 100% 29.82 in 10.0 miles SW 25.3 mph 35.7 mph N/A   Partly Cloudy
1:22 PM 42.8°F 39.2°F 87% 29.84 in 10.0 miles SW 25.3 mph 31.1 mph N/A   Mostly Cloudy
1:23 PM 42.8°F 41.0°F 93% 29.84 in 10.0 miles SW 23.0 mph 31.1 mph N/A   Light Drizzle
1:35 PM 42.8°F 39.2°F 87% 29.84 in 10.0 miles SW 24.2 mph 33.4 mph N/A   Mostly Cloudy
1:37 PM 42.8°F 39.2°F 87% 29.84 in 10.0 miles SW 18.4 mph 33.4 mph N/A   Mostly Cloudy
1:53 PM 42.8°F 41.0°F 93% 29.84 in 10.0 miles SSW 21.9 mph 33.4 mph N/A   Mostly Cloudy
1:58 PM 43.0°F 40.5°F 91% 29.88 in 10.0 miles SSW 24.2 mph 33.4 mph 0.00 in   Scattered Clouds
2:11 PM 42.8°F 39.2°F 87% 29.85 in 10.0 miles SW 19.6 mph 27.6 mph N/A   Partly Cloudy
2:15 PM 42.8°F 39.2°F 87% 29.85 in 10.0 miles SSW 20.7 mph 27.6 mph N/A   Partly Cloudy
2:16 PM 42.8°F 39.2°F 87% 29.85 in 10.0 miles SSW 17.3 mph 27.6 mph N/A   Partly Cloudy
2:51 PM 41.0°F 41.0°F 100% 29.88 in 10.0 miles SSW 15.0 mph - N/A   Light Drizzle
2:58 PM 41.7°F 40.6°F 96% 29.93 in 10.0 miles SSW 17.3 mph - 0.00 in   Light Drizzle
3:03 PM 41.0°F 39.2°F 93% 29.88 in 10.0 miles SSW 16.1 mph 20.7 mph N/A   Light Drizzle
3:05 PM 41.0°F 39.2°F 93% 29.88 in 10.0 miles SSW 16.1 mph 23.0 mph N/A   Overcast
3:28 PM 41.0°F 37.4°F 87% 29.89 in 10.0 miles SSW 13.8 mph - N/A   Light Drizzle
3:58 PM 41.2°F 35.6°F 81% 29.96 in 10.0 miles SSW 15.0 mph 24.2 mph 0.00 in   Light Drizzle
4:09 PM 41.0°F 37.4°F 87% 29.91 in 10.0 miles SSW 16.1 mph - N/A   Mostly Cloudy
4:20 PM 41.0°F 39.2°F 93% 29.91 in 10.0 miles SSW 16.1 mph - N/A   Light Drizzle
4:30 PM 41.0°F 39.2°F 93% 29.91 in 10.0 miles SSW 17.3 mph 25.3 mph N/A   Mostly Cloudy
4:54 PM 39.2°F 37.4°F 93% 29.92 in 10.0 miles SSW 20.7 mph 31.1 mph N/A   Light Drizzle
4:58 PM 39.2°F 37.4°F 93% 29.97 in 10.0 miles SW 19.6 mph 28.8 mph 0.00 in   Light Drizzle
5:35 PM 39.2°F 39.2°F 100% 29.94 in 10.0 miles SW 18.4 mph 28.8 mph N/A   Mostly Cloudy
5:36 PM 39.2°F 39.2°F 100% 29.94 in 10.0 miles SW 19.6 mph 28.8 mph N/A   Overcast
5:41 PM 39.2°F 39.2°F 100% 29.95 in 10.0 miles SW 26.5 mph 35.7 mph N/A   Overcast
5:46 PM 37.4°F 37.4°F 100% 29.95 in 10.0 miles WSW 28.8 mph 36.8 mph N/A Snow Light Snow
5:58 PM 34.5°F 34.5°F 100% 30.03 in 10.0 miles WSW 26.5 mph 32.2 mph 0.00 in Snow Light Snow
6:07 PM 32.0°F 32.0°F 100% 29.95 in 2.0 miles West 23.0 mph 36.8 mph N/A Snow Light Snow
6:13 PM 33.8°F 33.8°F 100% 29.96 in 1.8 miles WNW 17.3 mph 36.8 mph N/A Snow Light Snow
6:18 PM 33.8°F 33.8°F 100% 29.96 in 4.0 miles WNW 11.5 mph - N/A Snow Light Snow
6:21 PM 33.8°F 33.8°F 100% 29.96 in 9.0 miles West 10.4 mph - N/A   Overcast
6:26 PM 33.8°F 33.8°F 100% 29.96 in 10.0 miles West 9.2 mph - N/A   Mostly Cloudy
6:33 PM 32.0°F 32.0°F 100% 29.96 in 10.0 miles SSW 6.9 mph - N/A   Scattered Clouds
6:58 PM 33.6°F 33.6°F 100% 30.03 in 10.0 miles South 8.1 mph - 0.00 in   Clear
7:04 PM 32.0°F 32.0°F 100% 29.97 in 10.0 miles South 10.4 mph - N/A Rain Light Rain
7:14 PM 32.0°F 32.0°F 100% 29.98 in 10.0 miles SSW 12.7 mph - N/A   Clear
7:17 PM 32.0°F 32.0°F 100% 29.98 in 10.0 miles SSW 11.5 mph - N/A Rain Light Rain
7:28 PM 33.8°F 33.8°F 100% 29.99 in 10.0 miles SSW 17.3 mph 21.9 mph N/A   Clear
7:30 PM 33.8°F 33.8°F 100% 29.99 in 10.0 miles SSW 18.4 mph 21.9 mph N/A Rain Light Rain
7:31 PM 33.8°F 33.8°F 100% 29.99 in 10.0 miles SSW 19.6 mph 21.9 mph N/A   Clear
7:32 PM 33.8°F 33.8°F 100% 29.99 in 10.0 miles SSW 18.4 mph - N/A Rain Light Rain
7:40 PM 33.8°F 33.8°F 100% 30.00 in 10.0 miles SW 18.4 mph - N/A   Clear
7:48 PM 33.8°F 33.8°F 100% 30.00 in 10.0 miles SSW 19.6 mph - N/A Rain Light Rain
7:58 PM 34.0°F 34.0°F 100% 30.06 in 10.0 miles SSW 15.0 mph - 0.00 in Rain Light Rain
8:58 PM 33.3°F 33.3°F 100% 30.09 in 10.0 miles SSW 19.6 mph 25.3 mph 0.00 in   Light Drizzle
9:01 PM 32.0°F 32.0°F 100% 30.03 in 10.0 miles SSW 19.6 mph 25.3 mph N/A   Clear
9:08 PM 32.0°F 32.0°F 100% 30.03 in 10.0 miles SSW 16.1 mph 26.5 mph N/A   Light Drizzle
9:19 PM 32.0°F 32.0°F 100% 30.04 in 10.0 miles SSW 19.6 mph - N/A   Clear
9:21 PM 32.0°F 32.0°F 100% 30.04 in 10.0 miles SSW 19.6 mph - N/A   Light Drizzle
9:58 PM 32.9°F 32.9°F 100% 30.13 in 10.0 miles SW 17.3 mph - 0.00 in Snow Light Snow
10:10 PM 32.0°F 32.0°F 100% 30.07 in 10.0 miles SW 17.3 mph 23.0 mph N/A   Clear
10:11 PM 32.0°F 32.0°F 100% 30.07 in 10.0 miles SW 17.3 mph - N/A Snow Light Snow
10:21 PM 32.0°F 32.0°F 100% 30.08 in 10.0 miles SSW 17.3 mph - N/A   Clear
10:35 PM 32.0°F 32.0°F 100% 30.08 in 10.0 miles SSW 15.0 mph - N/A Snow Light Snow
10:57 PM 32.0°F 32.0°F 100% 30.09 in 10.0 miles SSW 12.7 mph - N/A   Clear
10:58 PM 32.0°F 32.0°F 100% 30.15 in 10.0 miles SSW 13.8 mph - 0.00 in   Clear
11:58 PM 30.9°F 30.9°F 100% 30.20 in 10.0 miles SSW 15.0 mph - 0.00 in   Clear
Moon Phase
Nov. 21 Nov. 28 Dec. 06 Dec. 13 Dec. 20
Sunrise:07:05 AM (PST) Moon Rise:12:49 PM (PST)11/21
Sunset:04:07 PM (PST) Moon Set:12:03 AM (PST)11/21

Copyright © 2014 The Weather Underground, Inc.